{"data":{"norad_id":47747,"intl_designator":"2021-017AB","name":"STARLINK-2161","alt_names":[],"object_type":"PAYLOAD","status":"ACTIVE","operator":null,"country":"US","launch_date":"2021-03-04","launch_site_code":"AFETR","launch_vehicle":null,"mission":null,"orbit_class":"UNKNOWN","rcs_meters":null,"size_class":null,"mass_kg":null,"dimensions":null,"purposes":["comms"],"wikipedia_slug":null,"has_3d_model":false,"image_url":null,"decayed_at":null,"tle_current":{"epoch":"2026-09-19T15:18:19.714752Z","epoch_age_seconds":100175,"freshness":"FRESH","line1":"1 47747U 21017AB  26262.63772818  .00003761  00000+0  13285-3 0  9998","line2":"2 47747  53.1612  11.2987 0001212  83.8083 276.3056 15.31710762307735","mean_motion":15.31710762,"eccentricity":0.0001212,"inclination_deg":53.1612,"raan_deg":11.2987,"arg_perigee_deg":83.8083,"mean_anomaly_deg":276.3056,"bstar":0.00013285,"rev_number":30773,"period_min":94.012527412143,"perigee_km":469.87783444786,"apogee_km":471.53799445513,"semimajor_km":6848.8449144515,"source":"CELESTRAK","updated_at":"2026-09-20T09:00:38.601636Z"}}}